Find Starlink 3623

NORAD ID: 51772 Int'l Des: 2022-017 Owner: SPXS Country: US Constellation: starlink operational
LEOCIRCULAR

当前视图

正在加载3D地球...

About Starlink 3623

Starlink 3623 (NORAD 51772) is a starlink constellation satellite (v1.5) launched Feb 25, 2022 by SPXS of US. It operates in LEO, CIRCULAR orbit with a mass of 297.00 kg.

关于 Starlink 3623

正在加载描述...

即将过境

Passes for default location (London). Set your location on the main map for personalized predictions.

高度历史

Loading altitude history...

两行轨道根数

1 51772U 22017E 26171.47327582 -.00000109 00000-0 11236-4 0 9997
2 51772 53.1580 237.5888 0001035 70.5134 289.5970 15.08833715238112
Epoch: Jun 20, 2026 • Age: 31 hours

当前状态

高度 540.5 km
速度 7.59 km/s
星下点 2.47°N, 135.19°W
发射日期 Feb 25, 2022
运行时间 4.3 years
类型 internet

技术详情

分类 Payload
质量 297.00 kg
干质量 275.00 kg
总质量 297.00 kg
长度 0.20 m
直径 2.80 m
跨度 9.00 m
形状 Box + pan
制造商 SPXS
平台类型 Starlink
阶段状态 In Orbit
所有者/国家 SPXS/US

Most Searched